This is the latest recevied weather packets stored in our database for station/object W6JCZ-13. If no packets are shown the sender has not sent any weather packets the latest 10 day(s).
| Time | Temp. | Humidity | Pressure | Rain* | Wind** | Luminosity | Snow |
|---|---|---|---|---|---|---|---|
| 1777745116 | 18.89° C | 70% | 1010.2 hPa | 0 mm | - | - | - |
| 1777744516 | 18.33° C | 73% | 1010.3 hPa | 0 mm | - | - | - |
| 1777743916 | 17.78° C | 73% | 1010.4 hPa | 0 mm | - | - | - |
| 1777743316 | 16.67° C | 74% | 1010.5 hPa | 0 mm | - | - | - |
| 1777742716 | 16.67° C | 75% | 1010.4 hPa | 0 mm | - | - | - |
| 1777742116 | 16.11° C | 76% | 1010.5 hPa | 0 mm | - | - | - |
| 1777741516 | 16.11° C | 75% | 1010.5 hPa | 0 mm | - | - | - |
| 1777740916 | 15.56° C | 76% | 1010.5 hPa | 0 mm | - | - | - |
| 1777740316 | 15° C | 76% | 1010.4 hPa | 0 mm | - | - | - |
| 1777739716 | 15° C | 78% | 1010.3 hPa | 0 mm | - | - | - |
| 1777739116 | 15° C | 79% | 1010.3 hPa | 0 mm | - | - | - |
| 1777738516 | 15° C | 79% | 1010.1 hPa | 0 mm | - | - | - |
| 1777737916 | 14.44° C | 78% | 1010 hPa | 0 mm | - | - | - |
| 1777737316 | 14.44° C | 80% | 1010 hPa | 0 mm | - | - | - |
| 1777736716 | 13.89° C | 80% | 1010.2 hPa | 0 mm | - | - | - |
| 1777736116 | 13.89° C | 80% | 1009.6 hPa | 0 mm | - | - | - |
| 1777735516 | 13.89° C | 81% | 1009.4 hPa | 0 mm | - | - | - |
| 1777734916 | 13.33° C | 82% | 1009.7 hPa | 0 mm | - | - | - |
| 1777734316 | 13.33° C | 82% | 1009.8 hPa | 0 mm | - | - | - |
| 1777733716 | 13.33° C | 82% | 1009.7 hPa | 0 mm | - | - | - |
| 1777733116 | 12.78° C | 83% | 1009.6 hPa | 0 mm | - | - | - |
| 1777732516 | 12.78° C | 83% | 1009.3 hPa | 0 mm | - | - | - |
| 1777731916 | 12.22° C | 85% | 1009.2 hPa | 0 mm | - | - | - |
| 1777731316 | 12.22° C | 85% | 1009.3 hPa | 0 mm | - | - | - |
| 1777730716 | 12.22° C | 86% | 1009.3 hPa | 0 mm | - | - | - |
* Rain latest hour (hover to see other rain measurements)
** Current wind speed in m/s (hover to see current wind gust speed)